Вернуться в каталог

YAOGAN-30 M

АктивенВоенныеVLEO
NORAD 43172·PAYLOAD·🇨🇳 China

Запущен Jan 25, 2018 с Xichang Satellite Launch Center

Loading…

Ближайшие Пролёты (ближайшие 24 часа)

TLE

СвежийSource: Space-Track

Эпоха: Sep 14, 2026, 13:50 UTC

1 43172U 18011D   26257.57706211  .00001978  00000-0  14594-3 0  9990
2 43172  34.9978 326.0057 0001490 174.8844 185.1879 15.03068478471544

Отслеживайте YAOGAN-30 M в реальном времени с AllMySat

Download on the App Store